1510894801.09,38657,8.63,73738.0,-2.23,-3.43,-3.43,0,*5C
1510894802.34,38658,8.63,73738.5,-2.21,-3.47,-3.39,0,*58
1510894803.53,38659,8.63,73736.8,-2.19,-3.39,-3.35,0,*57
1510894804.76,38660,8.63,73736.8,-2.21,-3.39,-3.35,0,*56
1510894805.98,38661,8.63,73736.5,-2.23,-3.43,-3.31,0,*5C
1510894807.21,38662,8.63,73738.0,-2.21,-3.35,-3.27,0,*5B
1510894808.41,38663,8.63,73736.5,-2.23,-3.39,-3.27,0,*54
1510894809.63,38664,8.63,73738.0,-2.21,-3.27,-3.23,0,*5A
1510894810.85,38665,8.63,73736.5,-2.21,-3.27,-3.23,0,*5B
1510894812.06,38666,8.63,73738.5,-2.21,-3.23,-3.23,0,*5C
1510894813.25,38667,8.63,73736.3,-2.19,-3.23,-3.11,0,*57
1510894814.47,38668,8.63,73736.0,-2.17,-3.19,-3.07,0,*58
1510894815.67,38669,8.63,73734.8,-2.23,-3.15,-3.15,0,*51
1510894816.87,38670,8.63,73738.3,-2.23,-3.07,-3.07,0,*59
1510894818.06,38671,8.63,73736.5,-2.19,-3.03,-3.03,0,*51
1510894819.28,38672,8.63,73736.8,-2.21,-3.03,-3.03,0,*59
1510894820.5,38673,8.63,73738.5,-2.21,-3.03,-3.03,0,*58
1510894821.73,38674,8.63,73738.0,-2.21,-3.03,-3.03,0,*5F
1510894822.95,38675,8.63,73734.3,-2.21,-3.03,-3.03,0,*5E
1510894824.14,38676,8.63,73732.8,-2.19,-2.99,-3.03,0,*54
1510894825.34,38677,8.63,73736.3,-2.23,-3.03,-3.07,0,*5A
1510894826.56,38678,8.63,73736.5,-2.21,-2.99,-3.03,0,*51
1510894827.76,38679,8.63,73736.3,-2.19,-2.99,-2.99,0,*59
1510894828.95,38680,8.63,73736.8,-2.19,-2.99,-2.99,0,*5F
1510894830.15,38681,8.63,73740.0,-2.19,-2.99,-2.99,0,*5E
1510894831.34,38682,8.63,73736.0,-2.19,-2.99,-3.03,0,*5F
1510894832.57,38683,8.63,73738.3,-2.17,-2.95,-2.99,0,*5E
1510894833.76,38684,8.63,73736.0,-2.19,-2.99,-3.03,0,*59
1510894834.96,38685,8.63,73736.3,-2.19,-2.99,-2.99,0,*5A
1510894836.19,38686,8.63,73740.5,-2.21,-2.95,-2.99,0,*5E
1510894837.39,38687,8.63,73736.8,-2.19,-2.99,-2.99,0,*58
1510894838.58,38688,8.63,73736.8,-2.19,-2.99,-2.99,0,*57
1510894839.78,38689,8.63,73738.3,-2.19,-2.95,-2.99,0,*5A
1510894840.98,38690,8.63,73736.8,-2.19,-2.99,-3.03,0,*5C
1510894842.2,38691,8.63,73738.5,-2.17,-2.95,-2.99,0,*5D
1510894843.4,38692,8.63,73738.0,-2.19,-2.99,-3.03,0,*5E
1510894844.62,38693,8.63,73742.5,-2.17,-2.95,-2.99,0,*5F
1510894845.82,38694,8.63,73742.0,-2.19,-2.95,-3.03,0,*54
1510894847.02,38695,8.63,73738.3,-2.19,-2.99,-3.03,0,*59
1510894848.21,38696,8.63,73736.0,-2.19,-2.99,-3.03,0,*5A
1510894849.44,38697,8.63,73738.5,-2.17,-2.95,-2.95,0,*57
1510894850.67,38698,8.63,73740.0,-2.17,-2.95,-2.95,0,*58
1510894851.86,38699,8.63,73736.8,-2.19,-2.99,-2.99,0,*57
1510894853.09,38700,8.63,73738.3,-2.17,-2.95,-2.95,0,*58
1510894854.29,38701,8.63,73736.3,-2.19,-2.99,-2.99,0,*57
1510894855.51,38702,8.63,73738.5,-2.17,-2.95,-2.95,0,*5A
1510894856.7,38703,8.63,73738.5,-2.15,-2.91,-2.91,0,*59
1510894857.91,38704,8.63,73742.8,-2.19,-2.95,-2.95,0,*52
1510894859.11,38705,8.63,73736.0,-2.19,-2.95,-2.95,0,*53
1510894860.32,38706,8.63,73736.5,-2.17,-2.91,-2.91,0,*5E
1510894861.52,38707,8.63,73742.8,-2.19,-2.99,-2.99,0,*51
1510894862.72,38708,8.63,73740.3,-2.19,-2.95,-2.95,0,*5E
1510894863.94,38709,8.63,73740.3,-2.17,-2.91,-2.95,0,*55
1510894865.13,38710,8.63,73738.0,-2.19,-2.95,-2.91,0,*53
1510894866.35,38711,8.63,73736.3,-2.17,-2.91,-2.95,0,*5C
1510894867.58,38712,8.63,73738.3,-2.17,-2.95,-2.95,0,*5B
1510894868.81,38713,8.63,73742.8,-2.17,-2.95,-2.95,0,*5A
1510894870.03,38714,8.63,73740.3,-2.17,-2.95,-2.95,0,*5D
1510894871.26,38715,8.63,73740.0,-2.17,-2.95,-2.95,0,*5C
1510894872.46,38716,8.63,73740.5,-2.19,-2.99,-2.99,0,*51
1510894873.65,38717,8.63,73736.3,-2.19,-2.99,-2.99,0,*50
1510894874.87,38718,8.63,73740.0,-2.17,-2.95,-2.91,0,*55
1510894876.1,38719,8.63,73738.5,-2.17,-2.95,-2.91,0,*54
1510894877.32,38720,8.63,73736.5,-2.17,-2.95,-2.95,0,*5A
1510894878.54,38721,8.63,73736.0,-2.17,-2.95,-2.91,0,*5F
1510894879.77,38722,8.63,73736.8,-2.17,-2.95,-2.95,0,*58
1510894881.0,38723,8.63,73738.3,-2.17,-2.95,-2.95,0,*59
1510894882.23,38724,8.63,73738.8,-2.17,-2.95,-2.95,0,*5E
1510894883.45,38725,8.63,73736.8,-2.17,-2.91,-2.95,0,*5B
1510894884.68,38726,8.63,73734.8,-2.17,-2.95,-2.95,0,*5C
1510894885.9,38727,8.63,73736.0,-2.17,-2.95,-2.95,0,*5D
1510894887.13,38728,8.63,73734.0,-2.17,-2.95,-2.95,0,*52
1510894888.36,38729,8.63,73736.5,-2.17,-2.95,-2.95,0,*53
1510894889.58,38730,8.63,73736.3,-2.17,-2.95,-2.91,0,*5F
1510894890.8,38731,8.63,73732.5,-2.17,-2.91,-2.95,0,*5E
1510894891.99,38732,8.63,73738.3,-2.19,-2.99,-2.99,0,*57
1510894893.2,38733,8.63,73734.8,-2.15,-2.95,-2.95,0,*5A
1510894894.41,38734,8.63,73734.8,-2.15,-2.95,-2.99,0,*51
1510894895.63,38735,8.63,73734.8,-2.17,-2.99,-2.99,0,*5E
1510894896.86,38736,8.63,73736.3,-2.17,-2.95,-2.99,0,*51
1510894898.09,38737,8.63,73732.3,-2.17,-2.95,-2.99,0,*50
1510894899.32,38738,8.63,73734.8,-2.17,-2.95,-2.99,0,*5F
1510894900.52,38739,8.63,73734.0,-2.15,-2.95,-3.07,0,*5A
1510894901.72,38740,8.63,73734.8,-2.15,-3.07,-2.99,0,*58
1510894902.92,38741,8.63,73734.8,-2.15,-2.99,-2.99,0,*5F
1510894904.12,38742,8.63,73734.8,-2.15,-2.99,-2.99,0,*5C
1510894905.32,38743,8.63,73734.0,-2.15,-2.99,-3.07,0,*5B
1510894906.52,38744,8.63,73736.8,-2.15,-2.99,-2.99,0,*5A
1510894907.73,38745,8.63,73736.3,-2.15,-2.99,-2.99,0,*5B
1510894908.93,38746,8.63,73734.8,-2.15,-2.99,-2.99,0,*58
1510894910.12,38747,8.63,73734.8,-2.15,-2.99,-3.07,0,*5F
1510894911.33,38748,8.63,73734.0,-2.15,-3.07,-2.99,0,*50
1510894912.53,38749,8.63,73732.8,-2.15,-2.99,-3.07,0,*51
1510894913.72,38750,8.63,73736.8,-2.15,-2.99,-3.07,0,*59
1510894914.94,38751,8.63,73736.3,-2.17,-2.99,-3.07,0,*5A
1510894916.14,38752,8.63,73734.3,-2.15,-2.99,-2.99,0,*5D
1510894917.34,38753,8.63,73734.5,-2.15,-3.07,-3.07,0,*5C
1510894918.54,38754,8.63,73732.0,-2.15,-3.07,-3.07,0,*5B
1510894919.76,38755,8.63,73734.3,-2.17,-3.07,-2.99,0,*5E
1510894920.98,38756,8.63,73734.5,-2.13,-2.95,-3.07,0,*55
1510894922.18,38757,8.63,73734.5,-2.15,-3.07,-3.11,0,*5F
1510894923.38,38758,8.63,73730.3,-2.15,-3.11,-3.19,0,*5F
1510894924.57,38759,8.63,73734.8,-2.15,-3.19,-3.19,0,*56
1510894925.76,38760,8.63,73734.3,-2.15,-3.11,-3.19,0,*54
1510894926.96,38761,8.63,73732.0,-2.15,-3.19,-3.19,0,*5D
1510894928.18,38762,8.63,73732.5,-2.13,-3.03,-3.07,0,*5C
1510894929.38,38763,8.63,73734.5,-2.15,-3.11,-3.11,0,*5F
1510894930.59,38764,8.63,73734.3,-2.13,-3.07,-3.07,0,*5E
1510894931.79,38765,8.63,73734.0,-2.15,-3.19,-3.19,0,*59
1510894933.01,38766,8.63,73730.0,-2.17,-3.19,-3.11,0,*50
1510894934.22,38767,8.63,73732.5,-2.17,-3.11,-3.11,0,*59
1510894935.42,38768,8.63,73728.8,-2.15,-3.11,-3.11,0,*54
1510894936.62,38769,8.63,73738.0,-2.15,-3.11,-3.19,0,*5D
1510894937.81,38770,8.63,73732.5,-2.15,-3.11,-3.19,0,*55
1510894939.01,38771,8.63,73734.0,-2.15,-3.11,-3.07,0,*5B
1510894940.21,38772,8.63,73732.8,-2.15,-3.11,-3.07,0,*58
1510894941.41,38773,8.63,73738.3,-2.15,-3.19,-3.11,0,*56
1510894942.6,38774,8.63,73732.8,-2.15,-3.19,-3.11,0,*51
1510894943.82,38775,8.63,73732.8,-2.13,-3.07,-3.15,0,*5D
1510894945.01,38776,8.63,73738.0,-2.15,-3.11,-3.19,0,*53
1510894946.21,38777,8.63,73738.8,-2.15,-3.19,-3.19,0,*5A
1510894947.41,38778,8.63,73736.3,-2.15,-3.11,-3.11,0,*55
1510894948.6,38779,8.63,73734.3,-2.15,-3.11,-3.11,0,*54
1510894949.8,38780,8.63,73736.3,-2.15,-3.11,-3.11,0,*52
1510894951.0,38781,8.63,73736.0,-2.15,-3.19,-3.11,0,*5B
1510894952.19,38782,8.63,73738.3,-2.15,-3.19,-3.19,0,*50
1510894953.39,38783,8.63,73734.8,-2.15,-3.11,-3.11,0,*51
1510894954.61,38784,8.63,73732.3,-2.17,-3.11,-3.19,0,*5C
1510894955.82,38785,8.63,73738.5,-2.17,-3.19,-3.11,0,*5D
1510894957.04,38786,8.63,73742.0,-2.17,-3.07,-3.11,0,*51
1510894958.26,38787,8.63,73740.5,-2.17,-3.07,-3.11,0,*50
1510894959.47,38788,8.63,73738.0,-2.17,-3.11,-3.19,0,*50
1510894960.67,38789,8.63,73738.8,-2.15,-3.07,-3.11,0,*5C
1510894961.87,38790,8.63,73740.5,-2.15,-3.07,-3.11,0,*54
1510894963.09,38791,8.63,73738.5,-2.13,-2.95,-3.03,0,*5A
1510894964.29,38792,8.63,73740.5,-2.15,-3.07,-3.07,0,*51
1510894965.49,38793,8.63,73736.3,-2.15,-3.11,-3.11,0,*50
1510894966.69,38794,8.63,73736.5,-2.15,-2.99,-3.07,0,*51
1510894967.88,38795,8.63,73736.0,-2.15,-2.99,-3.07,0,*50
1510894969.1,38796,8.63,73736.8,-2.17,-2.99,-3.07,0,*51
1510894970.33,38797,8.63,73738.5,-2.13,-2.95,-3.03,0,*5C
1510894971.55,38798,8.63,73740.3,-2.13,-2.95,-3.03,0,*53
1510894972.75,38799,8.63,73740.0,-2.15,-2.99,-3.07,0,*5C
1510894973.95,38800,8.63,73738.5,-2.15,-3.07,-2.99,0,*53
1510894975.15,38801,8.63,73738.0,-2.15,-3.07,-3.07,0,*54
1510894976.35,38802,8.63,73738.3,-2.15,-2.99,-3.07,0,*51
1510894977.55,38803,8.63,73736.0,-2.15,-3.07,-3.07,0,*56
1510894978.74,38804,8.63,73738.3,-2.15,-3.07,-3.11,0,*56
1510894979.95,38805,8.63,73742.8,-2.15,-2.95,-3.03,0,*5E
1510894981.15,38806,8.63,73736.5,-2.15,-2.99,-3.07,0,*55
1510894982.37,38807,8.63,73738.3,-2.13,-2.95,-3.03,0,*5A
1510894983.57,38808,8.63,73736.0,-2.15,-2.99,-3.07,0,*5B
1510894984.77,38809,8.63,73740.0,-2.15,-2.99,-3.07,0,*5A
1510894985.97,38810,8.63,73736.3,-2.15,-3.07,-3.07,0,*54
1510894987.16,38811,8.63,73736.5,-2.15,-2.99,-3.07,0,*53
1510894988.36,38812,8.63,73736.8,-2.15,-2.99,-3.07,0,*50
1510894989.56,38813,8.63,73742.5,-2.15,-3.07,-3.07,0,*57
1510894990.76,38814,8.63,73738.8,-2.15,-2.99,-3.07,0,*56
1510894991.98,38815,8.63,73740.0,-2.13,-2.95,-3.03,0,*59
1510894993.18,38816,8.63,73742.0,-2.15,-2.99,-3.07,0,*54
1510894994.38,38817,8.63,73738.3,-2.15,-3.07,-3.11,0,*54
1510894995.57,38818,8.63,73736.5,-2.15,-3.07,-3.19,0,*53
1510894996.77,38819,8.63,73742.3,-2.15,-3.11,-3.19,0,*55
1510894997.97,38820,8.63,73740.5,-2.15,-3.11,-3.11,0,*57
1510894999.16,38821,8.63,73740.3,-2.15,-3.07,-3.07,0,*56
1510895000.36,38822,8.63,73742.0,-2.15,-3.07,-3.07,0,*55
1510895001.56,38823,8.63,73740.8,-2.15,-3.07,-3.11,0,*53
1510895002.76,38824,8.63,73738.5,-2.15,-2.95,-3.03,0,*5D
1510895003.98,38825,8.63,73740.5,-2.13,-3.03,-3.03,0,*54
1510895005.2,38826,8.63,73740.8,-2.13,-3.03,-3.07,0,*53
1510895006.4,38827,8.63,73742.5,-2.15,-3.07,-3.11,0,*57
1510895007.6,38828,8.63,73742.5,-2.15,-3.11,-3.11,0,*5F
1510895008.82,38829,8.63,73742.5,-2.13,-2.95,-3.15,0,*51
1510895010.01,38830,8.63,73736.0,-2.15,-3.03,-3.07,0,*52
1510895011.21,38831,8.63,73740.8,-2.15,-2.99,-3.19,0,*5E
1510895012.41,38832,8.63,73740.3,-2.15,-3.07,-3.11,0,*53
1510895013.6,38833,8.63,73740.0,-2.15,-3.07,-3.19,0,*5A
1510895014.8,38834,8.63,73736.0,-2.15,-3.11,-3.11,0,*52
1510895016.01,38835,8.63,73738.0,-2.13,-3.07,-3.15,0,*56
1510895017.23,38836,8.63,73742.5,-2.13,-3.07,-3.19,0,*59
1510895018.42,38837,8.63,73736.5,-2.15,-3.19,-3.23,0,*58
1510895019.61,38838,8.63,73742.5,-2.15,-3.19,-3.19,0,*5E
1510895020.83,38839,8.63,73738.0,-2.13,-3.15,-3.19,0,*55
1510895022.04,38840,8.63,73738.8,-2.13,-3.19,-3.15,0,*5B
1510895023.23,38841,8.63,73736.3,-2.15,-3.23,-3.23,0,*50
1510895024.45,38842,8.63,73740.3,-2.13,-3.27,-3.19,0,*58
1510895025.67,38843,8.63,73736.0,-2.13,-3.27,-3.19,0,*59
1510895026.87,38844,8.63,73736.8,-2.15,-3.31,-3.31,0,*55
1510895028.06,38845,8.63,73738.5,-2.15,-3.23,-3.35,0,*53
1510895029.26,38846,8.63,73736.0,-2.15,-3.31,-3.35,0,*53
1510895030.49,38847,8.63,73738.3,-2.15,-3.35,-3.43,0,*57
1510895031.71,38848,8.63,73736.8,-2.15,-3.35,-3.47,0,*5C
1510895032.95,38849,8.63,73736.8,-2.15,-3.43,-3.55,0,*5F
1510895034.19,38850,8.63,73742.3,-2.13,-3.39,-3.63,0,*59
1510895035.43,38851,8.63,73738.8,-2.15,-3.43,-3.67,0,*57
1510895036.67,38852,8.63,73742.0,-2.15,-3.43,-3.67,0,*54
1510895037.93,38853,8.63,73738.5,-2.13,-3.43,-3.63,0,*57
1510895039.17,38854,8.63,73738.8,-2.15,-3.43,-3.67,0,*52
1510895040.44,38855,8.63,73736.8,-2.13,-3.47,-3.67,0,*51
1510895041.7,38856,8.63,73736.8,-2.13,-3.51,-3.67,0,*55
1510895042.94,38857,8.63,73740.5,-2.15,-3.51,-3.71,0,*55
1510895044.17,38858,8.63,73738.8,-2.15,-3.55,-3.79,0,*56
1510895045.43,38859,8.63,73742.3,-2.13,-3.43,-3.67,0,*59
1510895046.68,38860,8.63,73740.0,-2.13,-3.51,-3.75,0,*53
1510895047.93,38861,8.63,73736.0,-2.13,-3.51,-3.75,0,*52
1510895049.17,38862,8.63,73740.8,-2.13,-3.55,-3.75,0,*55
1510895050.41,38863,8.63,73742.0,-2.13,-3.55,-3.83,0,*5D
1510895051.66,38864,8.63,73740.8,-2.11,-3.51,-3.79,0,*59
1510895052.9,38865,8.63,73746.8,-2.13,-3.55,-3.83,0,*5B
1510895054.15,38866,8.63,73742.3,-2.13,-3.55,-3.79,0,*5D
1510895055.4,38867,8.63,73742.0,-2.11,-3.51,-3.75,0,*56
1510895056.64,38868,8.63,73740.8,-2.13,-3.55,-3.91,0,*55
1510895057.89,38869,8.63,73740.0,-2.13,-3.55,-3.83,0,*57
1510895059.13,38870,8.63,73740.8,-2.11,-3.59,-3.87,0,*55
1510895060.35,38871,8.63,73738.5,-2.15,-3.67,-3.87,0,*5D
1510895061.6,38872,8.63,73738.0,-2.15,-3.67,-4.01,0,*57
1510895062.85,38873,8.63,73740.8,-2.13,-3.63,-4.05,0,*50
1510895064.08,38874,8.63,73738.5,-2.13,-3.75,-4.09,0,*5C
1510895065.3,38875,8.63,73738.8,-2.13,-3.75,-4.09,0,*5D
1510895066.53,38876,8.63,73736.8,-2.13,-3.75,-4.17,0,*51
1510895067.75,38877,8.63,73738.8,-2.13,-3.75,-4.17,0,*50
1510895068.98,38878,8.63,73740.8,-2.13,-3.83,-4.21,0,*53
1510895070.21,38879,8.63,73742.0,-2.13,-3.83,-4.17,0,*57
1510895071.44,38880,8.63,73736.8,-2.13,-3.95,-4.21,0,*53
1510895072.67,38881,8.63,73740.0,-2.13,-3.91,-4.29,0,*5E
1510895073.9,38882,8.63,73736.5,-2.13,-3.91,-4.29,0,*5D
1510895075.12,38883,8.63,73742.5,-2.13,-4.05,-4.17,0,*5B
1510895076.35,38884,8.63,73740.8,-2.13,-3.95,-4.29,0,*5F
1510895077.57,38885,8.63,73742.3,-2.13,-4.05,-4.41,0,*5E
1510895078.79,38886,8.63,73738.8,-2.11,-4.05,-4.37,0,*5E
1510895080.01,38887,8.63,73738.3,-2.13,-4.09,-4.45,0,*54
1510895081.22,38888,8.63,73740.0,-2.13,-4.17,-4.45,0,*54
1510895082.44,38889,8.63,73740.8,-2.13,-4.17,-4.45,0,*55
1510895083.64,38890,8.63,73738.5,-2.15,-4.21,-4.45,0,*5E
1510895084.86,38891,8.63,73740.3,-2.13,-3.95,-4.33,0,*50
1510895086.09,38892,8.63,73738.8,-2.13,-3.91,-4.41,0,*52
1510895087.32,38893,8.63,73736.8,-2.13,-3.95,-4.41,0,*57
1510895088.55,38894,8.63,73734.5,-2.13,-3.95,-4.33,0,*55
1510895089.77,38895,8.63,73740.3,-2.13,-3.91,-4.33,0,*50
1510895091.0,38896,8.63,73738.8,-2.13,-3.91,-4.33,0,*53
1510895092.23,38897,8.63,73742.5,-2.13,-3.91,-4.33,0,*52
1510895093.46,38898,8.63,73742.5,-2.13,-3.91,-4.33,0,*5D
1510895094.68,38899,8.63,73738.3,-2.13,-3.95,-4.41,0,*5D
1510895095.91,38900,8.63,73742.5,-2.13,-4.05,-4.41,0,*52
1510895097.13,38901,8.63,73740.8,-2.13,-4.05,-4.41,0,*53
1510895098.32,38902,8.63,73740.0,-2.15,-4.05,-4.45,0,*52
1510895099.54,38903,8.63,73740.0,-2.13,-4.05,-4.45,0,*55
1510895100.76,38904,8.63,73742.0,-2.13,-4.09,-4.53,0,*59
1510895101.98,38905,8.63,73742.3,-2.13,-4.17,-4.53,0,*57
1510895103.21,38906,8.63,73742.5,-2.13,-4.17,-4.61,0,*55
1510895104.44,38907,8.63,73742.5,-2.13,-4.21,-4.61,0,*51
1510895105.66,38908,8.63,73740.3,-2.13,-4.29,-4.61,0,*56
1510895106.88,38909,8.63,73740.5,-2.13,-4.29,-4.57,0,*52
1510895108.11,38910,8.63,73740.8,-2.13,-4.29,-4.61,0,*5F
1510895109.33,38911,8.63,73742.3,-2.13,-4.29,-4.61,0,*5E
1510895110.55,38912,8.63,73736.8,-2.13,-4.29,-4.57,0,*58
1510895111.78,38913,8.63,73736.8,-2.13,-4.21,-4.61,0,*54
1510895112.99,38914,8.63,73736.0,-2.15,-4.17,-4.57,0,*55
1510895114.21,38915,8.63,73736.3,-2.13,-4.09,-4.53,0,*59
1510895115.4,38916,8.63,73736.8,-2.15,-4.09,-4.45,0,*5B
1510895116.63,38917,8.63,73736.5,-2.13,-3.95,-4.29,0,*54
1510895117.84,38918,8.63,73738.0,-2.15,-3.87,-4.21,0,*56
1510895119.07,38919,8.63,73740.0,-2.13,-3.83,-4.05,0,*53
1510895120.29,38920,8.63,73738.3,-2.13,-3.75,-4.05,0,*50
1510895121.54,38921,8.63,73740.0,-2.13,-3.67,-4.05,0,*52
1510895122.76,38922,8.63,73740.0,-2.13,-3.75,-3.95,0,*5C
1510895124.01,38923,8.63,73738.0,-2.13,-3.67,-3.91,0,*5A
1510895125.26,38924,8.63,73740.8,-2.13,-3.67,-3.91,0,*5D
1510895126.5,38925,8.63,73736.3,-2.13,-3.67,-3.91,0,*5C
1510895127.75,38926,8.63,73740.0,-2.13,-3.63,-3.91,0,*5B
1510895129.0,38927,8.63,73742.0,-2.13,-3.63,-3.91,0,*5A
1510895130.25,38928,8.63,73738.3,-2.13,-3.63,-3.83,0,*56
1510895131.49,38929,8.63,73738.3,-2.11,-3.59,-3.87,0,*58
1510895132.74,38930,8.63,73736.0,-2.13,-3.55,-3.91,0,*59
1510895133.99,38931,8.63,73740.8,-2.13,-3.63,-3.79,0,*5B
1510895135.24,38932,8.63,73742.0,-2.11,-3.59,-3.75,0,*5F
1510895136.49,38933,8.63,73740.5,-2.11,-3.59,-3.79,0,*52
1510895137.74,38934,8.63,73742.3,-2.11,-3.59,-3.79,0,*55
1510895138.98,38935,8.63,73742.5,-2.13,-3.55,-3.83,0,*5F
1510895140.23,38936,8.63,73742.3,-2.11,-3.59,-3.87,0,*56
1510895141.47,38937,8.63,73740.5,-2.13,-3.63,-3.95,0,*5F
1510895142.72,38938,8.63,73740.0,-2.13,-3.63,-3.95,0,*50
1510895143.96,38939,8.63,73740.0,-2.13,-3.67,-3.91,0,*51
1510895145.21,38940,8.63,73740.0,-2.13,-3.67,-3.83,0,*5C
1510895146.45,38941,8.63,73742.3,-2.13,-3.67,-3.91,0,*5E
1510895147.7,38942,8.63,73738.8,-2.11,-3.63,-3.87,0,*5C
1510895148.95,38943,8.63,73740.3,-2.13,-3.67,-3.91,0,*5C
1510895150.15,38944,8.63,73742.3,-2.15,-3.79,-3.95,0,*56
1510895151.38,38945,8.63,73736.3,-2.13,-3.75,-3.91,0,*59
1510895152.63,38946,8.63,73740.5,-2.13,-3.67,-3.91,0,*59
1510895153.87,38947,8.63,73740.8,-2.13,-3.67,-3.91,0,*58
1510895155.1,38948,8.63,73742.0,-2.13,-3.75,-3.95,0,*50
1510895156.32,38949,8.63,73742.5,-2.13,-3.75,-3.95,0,*51
1510895157.57,38950,8.63,73742.0,-2.11,-3.71,-3.87,0,*5C
1510895158.82,38951,8.63,73742.0,-2.11,-3.71,-3.91,0,*5A
1510895160.04,38952,8.63,73740.5,-2.13,-3.75,-3.95,0,*5B
1510895161.27,38953,8.63,73740.3,-2.13,-3.79,-4.05,0,*58
1510895162.47,38954,8.63,73742.3,-2.15,-3.83,-3.95,0,*52
1510895163.7,38955,8.63,73740.5,-2.13,-3.75,-3.95,0,*5C
1510895164.93,38956,8.63,73740.3,-2.13,-3.79,-4.05,0,*5D
1510895166.16,38957,8.63,73742.8,-2.13,-3.75,-3.91,0,*5A
1510895167.39,38958,8.63,73740.8,-2.13,-3.75,-3.95,0,*51
1510895168.63,38959,8.63,73742.0,-2.13,-3.67,-3.79,0,*51
1510895169.88,38960,8.63,73742.3,-2.11,-3.63,-3.75,0,*51
1510895171.15,38961,8.63,73738.3,-2.11,-3.51,-3.63,0,*56
1510895172.41,38962,8.63,73740.3,-2.13,-3.55,-3.67,0,*57
1510895173.68,38963,8.63,73738.0,-2.11,-3.47,-3.59,0,*5A
1510895174.93,38964,8.63,73742.8,-2.11,-3.35,-3.59,0,*58
1510895176.19,38965,8.63,73742.8,-2.13,-3.51,-3.63,0,*50
1510895177.43,38966,8.63,73740.5,-2.13,-3.39,-3.55,0,*58
1510895178.67,38967,8.63,73738.8,-2.11,-3.35,-3.47,0,*54
1510895179.9,38968,8.63,73736.0,-2.11,-3.27,-3.39,0,*51
1510895181.12,38969,8.63,73738.0,-2.13,-3.31,-3.39,0,*55
1510895182.34,38970,8.63,73736.5,-2.13,-3.27,-3.39,0,*5A
1510895183.53,38971,8.63,73736.8,-2.15,-3.23,-3.35,0,*55
1510895184.76,38972,8.63,73736.8,-2.13,-3.27,-3.39,0,*58
1510895185.98,38973,8.63,73740.3,-2.13,-3.27,-3.39,0,*59
1510895187.19,38974,8.63,73742.0,-2.11,-3.23,-3.35,0,*54
1510895188.43,38975,8.63,73740.8,-2.11,-3.23,-3.47,0,*50
1510895189.67,38976,8.63,73740.5,-2.11,-3.27,-3.47,0,*57
1510895190.91,38977,8.63,73740.3,-2.11,-3.35,-3.47,0,*55
1510895192.15,38978,8.63,73742.0,-2.11,-3.35,-3.47,0,*5A
1510895193.4,38979,8.63,73742.0,-2.11,-3.35,-3.59,0,*54
1510895194.65,38980,8.63,73738.5,-2.13,-3.31,-3.51,0,*5C
1510895195.89,38981,8.63,73738.8,-2.11,-3.27,-3.47,0,*5F
1510895197.13,38982,8.63,73736.8,-2.13,-3.31,-3.51,0,*5E
1510895198.37,38983,8.63,73734.0,-2.13,-3.39,-3.51,0,*57
1510895199.61,38984,8.63,73736.0,-2.13,-3.39,-3.55,0,*54
1510895200.83,38985,8.63,73738.3,-2.09,-3.35,-3.47,0,*51
1510895202.07,38986,8.63,73736.8,-2.11,-3.35,-3.59,0,*54
1510895203.3,38987,8.63,73734.3,-2.09,-3.39,-3.59,0,*50
1510895204.54,38988,8.63,73732.3,-2.11,-3.39,-3.51,0,*5E
1510895205.79,38989,8.63,73732.0,-2.11,-3.39,-3.59,0,*57
1510895207.06,38990,8.63,73736.0,-2.11,-3.47,-3.59,0,*56
1510895208.31,38991,8.63,73738.5,-2.11,-3.39,-3.59,0,*5E
1510895209.54,38992,8.63,73738.8,-2.09,-3.47,-3.63,0,*54
1510895210.81,38993,8.63,73738.3,-2.11,-3.47,-3.71,0,*5F
1510895212.08,38994,8.63,73736.8,-2.11,-3.51,-3.63,0,*5C
1510895213.33,38995,8.63,73736.0,-2.13,-3.63,-3.75,0,*59
1510895214.59,38996,8.63,73738.5,-2.11,-3.59,-3.71,0,*55
1510895215.86,38997,8.63,73738.3,-2.11,-3.59,-3.63,0,*57
1510895217.11,38998,8.63,73736.3,-2.11,-3.59,-3.75,0,*5F
1510895218.36,38999,8.63,73736.5,-2.11,-3.59,-3.75,0,*5E
1510895219.61,39000,8.63,73734.3,-2.11,-3.51,-3.75,0,*5E
1510895220.88,39001,8.63,73734.0,-2.11,-3.59,-3.71,0,*53
1510895222.13,39002,8.63,73734.5,-2.11,-3.59,-3.75,0,*54
1510895223.38,39003,8.63,73736.5,-2.11,-3.59,-3.79,0,*59
1510895224.63,39004,8.63,73734.0,-2.11,-3.59,-3.75,0,*52
1510895225.88,39005,8.63,73738.8,-2.11,-3.59,-3.79,0,*5F
1510895227.13,39006,8.63,73738.0,-2.11,-3.63,-3.87,0,*54
1510895228.4,39007,8.63,73738.0,-2.11,-3.71,-4.01,0,*5F
1510895229.64,39008,8.63,73734.0,-2.13,-3.71,-4.05,0,*56
1510895230.86,39009,8.63,73738.8,-2.09,-3.71,-4.05,0,*5C
1510895232.1,39010,8.63,73736.8,-2.11,-3.71,-4.05,0,*5D
1510895233.35,39011,8.63,73732.3,-2.11,-3.63,-4.05,0,*5F
1510895234.6,39012,8.63,73734.5,-2.11,-3.71,-4.13,0,*58
1510895235.84,39013,8.63,73732.3,-2.11,-3.63,-4.17,0,*5E
1510895237.07,39014,8.63,73734.3,-2.11,-3.79,-4.13,0,*56
1510895238.3,39015,8.63,73732.0,-2.11,-3.91,-4.05,0,*56
1510895239.52,39016,8.63,73734.8,-2.11,-3.87,-4.17,0,*51
1510895240.78,39017,8.63,73734.0,-2.11,-4.01,-4.25,0,*58
1510895242.03,39018,8.63,73736.8,-2.11,-4.01,-4.25,0,*57
1510895243.27,39019,8.63,73736.0,-2.11,-3.91,-4.29,0,*54
1510895244.49,39020,8.63,73732.5,-2.11,-4.05,-4.29,0,*54
1510895245.75,39021,8.63,73734.5,-2.11,-4.01,-4.29,0,*51
1510895246.97,39022,8.63,73736.0,-2.11,-4.05,-4.29,0,*56
1510895248.19,39023,8.63,73736.8,-2.11,-4.05,-4.37,0,*58
1510895249.45,39024,8.63,73736.3,-2.11,-4.01,-4.41,0,*5A
1510895250.7,39025,8.63,73736.8,-2.11,-4.01,-4.29,0,*55
1510895251.92,39026,8.63,73736.8,-2.11,-3.87,-4.17,0,*52
1510895253.15,39027,8.63,73732.3,-2.11,-3.75,-4.13,0,*5A
1510895254.39,39028,8.63,73734.0,-2.11,-3.75,-4.13,0,*55
1510895255.63,39029,8.63,73736.3,-2.11,-3.71,-4.13,0,*50
1510895256.86,39030,8.63,73734.8,-2.13,-3.83,-4.17,0,*53
1510895258.08,39031,8.63,73736.3,-2.13,-3.83,-4.33,0,*54
1510895259.29,39032,8.63,73736.8,-2.09,-3.91,-4.37,0,*5B
1510895260.52,39033,8.63,73736.0,-2.11,-3.87,-4.29,0,*5B
1510895261.75,39034,8.63,73736.8,-2.11,-3.91,-4.25,0,*57
1510895262.97,39035,8.63,73738.5,-2.11,-3.87,-4.25,0,*51
1510895264.2,39036,8.63,73736.3,-2.11,-4.05,-4.29,0,*53
1510895265.42,39037,8.63,73738.0,-2.11,-4.05,-4.37,0,*5D
1510895266.65,39038,8.63,73736.5,-2.11,-4.17,-4.37,0,*51
1510895267.87,39039,8.63,73738.5,-2.11,-4.17,-4.41,0,*51
1510895269.09,39040,8.63,73738.0,-2.11,-4.25,-4.49,0,*56
1510895270.29,39041,8.63,73742.8,-2.09,-4.29,-4.65,0,*5C
1510895271.54,39042,8.63,73736.0,-2.11,-4.57,-4.77,0,*5C
1510895272.76,39043,8.63,73738.0,-2.09,-4.65,-5.03,0,*57
1510895274.01,39044,8.63,73732.8,-2.09,-4.69,-5.03,0,*5C
1510895275.27,39045,8.63,73734.5,-2.11,-4.77,-5.15,0,*5C
1510895276.54,39046,8.63,73734.3,-2.11,-4.69,-5.15,0,*50
1510895277.81,39047,8.63,73738.5,-2.11,-4.69,-5.15,0,*51
1510895279.07,39048,8.63,73738.3,-2.11,-4.69,-5.15,0,*5E
1510895280.29,39049,8.63,73738.5,-2.09,-4.65,-5.15,0,*5A
1510895281.55,39050,8.63,73736.3,-2.11,-4.57,-5.07,0,*59
1510895282.78,39051,8.63,73742.3,-2.09,-4.65,-5.07,0,*50
1510895284.0,39052,8.63,73742.0,-2.09,-4.65,-5.15,0,*50
1510895285.22,39053,8.63,73736.8,-2.09,-4.65,-5.15,0,*51
1510895286.49,39054,8.63,73736.0,-2.11,-4.69,-5.15,0,*53
1510895287.75,39055,8.63,73736.8,-2.11,-4.77,-5.19,0,*51
1510895289.02,39056,8.63,73738.5,-2.11,-4.69,-5.19,0,*5D
1510895290.27,39057,8.63,73736.3,-2.11,-4.65,-5.19,0,*50
1510895291.54,39058,8.63,73738.0,-2.11,-4.77,-5.19,0,*5C
1510895292.8,39059,8.63,73736.3,-2.11,-4.77,-5.27,0,*50
1510895294.05,39060,8.63,73738.0,-2.09,-4.81,-5.27,0,*5A
1510895295.32,39061,8.63,73736.5,-2.11,-4.81,-5.27,0,*52
1510895296.59,39062,8.63,73734.8,-2.13,-4.93,-5.31,0,*57
1510895297.85,39063,8.63,73734.8,-2.13,-4.85,-5.31,0,*51
1510895299.1,39064,8.63,73738.0,-2.09,-4.81,-5.31,0,*59
1510895300.37,39065,8.63,73738.0,-2.11,-4.77,-5.27,0,*5F
1510895301.64,39066,8.63,73736.0,-2.13,-4.73,-5.23,0,*5E
1510895302.91,39067,8.63,73736.8,-2.11,-4.69,-5.27,0,*52
1510895304.18,39068,8.63,73736.0,-2.13,-4.73,-5.31,0,*53
1510895305.42,39069,8.63,73734.3,-2.13,-4.73,-5.35,0,*56
1510895306.66,39070,8.63,73738.3,-2.13,-4.81,-5.47,0,*56
1510895307.9,39071,8.63,73738.8,-2.13,-4.81,-5.47,0,*57
1510895309.13,39072,8.63,73740.5,-2.13,-4.85,-5.35,0,*55
1510895310.37,39073,8.63,73736.3,-2.13,-4.85,-5.47,0,*51
1510895311.61,39074,8.63,73736.3,-2.13,-4.93,-5.51,0,*56
1510895312.85,39075,8.63,73736.5,-2.13,-4.93,-5.51,0,*57
1510895314.09,39076,8.63,73738.0,-2.11,-4.81,-5.47,0,*52
1510895315.36,39077,8.63,73738.8,-2.11,-4.89,-5.31,0,*5A